Regional Weather Roundup
Issued by NWS Albany, NY

Home | Current Version | Previous Version | Graphics & Text | Print | Product List | Glossary On
Versions: 1 2 3 4 5 6 7 8 9 10 11 12 13 14 15 16 17 18 19 20 21 22 23 24 25 26 27 28 29 30 31 32 33 34 35 36 37 38 39 40 41 42 43 44 45 46 47 48 49 50
000
ASUS41 KALY 260510
RWRALY

NEW YORK STATE HOURLY WEATHER ROUNDUP
NATIONAL WEATHER SERVICE ALBANY NY
100 AM EDT MON SEP 26 2016

NOTE: "FAIR" INDICATES FEW OR NO CLOUDS BELOW 12,000 FEET WITH NO
SIGNIFICANT WEATHER AND/OR NO OBSTRUCTIONS TO VISIBILITY.

NYZ032-033-038>043-046>054-057>066-NYZ062>081-082-084-260600-
EAST


CITY           SKY/WX    TMP DP  RH WIND       PRES   REMARKS
ALBANY         PTCLDY    46  41  82 CALM      30.22S
GLENS FALLS    CLEAR     38  36  92 S3        30.21S
POUGHKEEPSIE   CLOUDY    41  38  89 CALM      30.21R
NEWBURGH       CLEAR     46  43  87 CALM      30.22R
MONTGOMERY     CLOUDY    42  40  92 CALM      30.21R
WHITE PLAINS   CLEAR     49  38  65 NW5       30.19S
ISLIP          CLEAR     48  41  76 NE3       30.19S
NEW YORK CITY  PTCLDY    63  40  42 SE5       30.19S
CENTRAL PARK   CLEAR     59  39  47 CALM      30.22S
$$

NYZ005>009-017-018-044>046-055-056-260600-
CENTRAL


CITY           SKY/WX    TMP DP  RH WIND       PRES   REMARKS
FULTON         CLEAR     45  41  86 CALM      30.18F
SYRACUSE       PTCLDY    45  41  86 E6        30.18F
ROME           PTCLDY    42  39  89 S3        30.22F
ELMIRA         CLEAR     41  36  82 CALM      30.18F
BINGHAMTON     CLEAR     45  36  70 E7        30.19S
MONTICELLO     CLEAR     45  36  70 CALM      30.21S
$$

NYZ026>034-041>043-087-260600-
NORTH


CITY           SKY/WX    TMP DP  RH WIND       PRES   REMARKS
WATERTOWN      CLOUDY    40  38  93 E3        30.19F
FORT DRUM      NOT AVBL
OGDENSBURG     FAIR      37  36  96 CALM      30.19F
MASSENA        CLOUDY    38  35  89 CALM      30.21S
SARANAC LAKE   CLOUDY    29  26  89 CALM      30.19F
PLATTSBURGH    CLEAR     40  37  89 CALM      30.20S
$$

NYZ001>004-010>016-019>021-085-260600-
WEST


CITY           SKY/WX    TMP DP  RH WIND       PRES   REMARKS
NIAGARA FALLS  CLEAR     50  40  68 E5        30.10F
BUFFALO        PTCLDY    52  40  63 SE9       30.10F
DUNKIRK        CLEAR     57  43  59 SE10      30.07F
JAMESTOWN      PTCLDY    48  43  81 SE7       30.10F
WELLSVILLE     CLOUDY    48  36  63 SE5       30.17F
ROCHESTER      PTCLDY    50  40  68 SE6       30.16F
PENN YAN       CLEAR     46  41  82 CALM      30.18S
$$

             KEY
       WCI = WIND CHILL INDEX
       VSB = VISIBILITY
       HX  = HEAT INDEX
$$



USA.gov is the U.S. government's official web portal to all federal, state and local government web resources and services.